{"data":{"norad_id":49027,"epoch":"2026-09-20T22:17:11.541120Z","epoch_age_seconds":64447,"freshness":"FRESH","line1":"1 49027U 21065B   26263.92860580  .00003165  00000+0  18574-3 0  9995","line2":"2 49027  34.9996 344.6109 0006000 185.2331 174.8318 15.11283827283766","mean_motion":15.11283827,"eccentricity":0.0006,"inclination_deg":34.9996,"raan_deg":344.6109,"arg_perigee_deg":185.2331,"mean_anomaly_deg":174.8318,"bstar":0.00018574,"rev_number":28376,"period_min":95.283227033435,"perigee_km":528.13740280083,"apogee_km":536.42990758706,"semimajor_km":6910.4206551939,"source":"CELESTRAK","updated_at":"2026-09-21T09:00:07.942105Z"}}